White Plains, CT

1:49 AM EDT on April 27, 2018 (GMT -0400)
Westchester County

Weather History for KHPN - May, 2012

Change the Weather History Date:

Saturday, May 26, 2012

  Actual Average Record
Temperature  
Mean Temperature 75 °F -  
Max Temperature 86 °F 67 °F 88 °F (2016)
Min Temperature 66 °F 49 °F 40 °F (1992)
Cooling Degree Days 10    
Growing Degree Days 25 (Base 50)    
Moisture  
Dew Point 68 °F    
Average Humidity 89    
Maximum Humidity 100    
Minimum Humidity 61    
Precipitation  
Precipitation 0.05 in - - ()
Sea Level Pressure  
Sea Level Pressure 30.11 in    
Wind  
Wind Speed 2 mph (WSW)    
Max Wind Speed 13 mph    
Max Gust Speed -    
Visibility 5 miles    
Events Fog , Rain , Thunderstorm    
Averages and records for this station are not official NWS values.
T = Trace of Precipitation, MM = Missing Value Source: NWS Daily Summary

Daily Weather History Graph

Daily Weather History Graph

Search for Another Location

Airport or City:

Astronomy

May. 26, 2012 Rise Set
Actual Time 5:27 AM EDT 8:16 PM EDT
Civil Twilight 4:55 AM EDT 8:49 PM EDT
Nautical Twilight 4:14 AM EDT 9:30 PM EDT
Astronomical Twilight 3:27 AM EDT 10:17 PM EDT
Moon 10:27 AM EDT (5/26) No Moon Set
Length of Visible Light 15h 53m
Length of Day
14h 48m
Waxing Crescent, 28% of the Moon is Illuminated
May 26
Waxing Crescent
May 28
First Quarter
Jun 4
Full
Jun 11
Last Quarter
Jun 19
New

Hourly Weather History & Observations

Time (EDT) Temp. Heat Index Dew Point Humidity Pressure Visibility Wind Dir Wind Speed Gust Speed Precip Events Conditions
12:56 AM 66.0 °F - 66.0 °F 100% 30.12 in 0.2 mi Calm Calm - N/A Fog Fog
1:38 AM 66.2 °F - 66.2 °F 100% 30.13 in 0.5 mi Calm Calm - N/A Fog Fog
1:56 AM 66.9 °F - 66.0 °F 97% 30.13 in 0.8 mi Calm Calm - N/A   Mist
2:56 AM 66.9 °F - 66.9 °F 100% 30.13 in 0.8 mi Calm Calm - N/A   Mist
3:56 AM 66.9 °F - 66.0 °F 97% 30.12 in 0.5 mi South 3.5 mph - N/A Fog Fog
4:17 AM 66.2 °F - 66.2 °F 100% 30.13 in 0.2 mi Calm Calm - N/A Fog Fog
4:56 AM 66.0 °F - 66.0 °F 100% 30.11 in 0.5 mi South 3.5 mph - N/A Fog Fog
5:56 AM 66.9 °F - 66.0 °F 97% 30.12 in 0.8 mi Calm Calm - N/A   Mist
5:59 AM 66.2 °F - 66.2 °F 100% 30.13 in 0.5 mi Variable 3.5 mph - N/A Fog Fog
6:56 AM 68.0 °F - 66.9 °F 96% 30.13 in 0.8 mi Variable 3.5 mph - N/A Fog Fog
7:56 AM 69.1 °F - 66.9 °F 93% 30.13 in 5.0 mi Variable 4.6 mph - N/A   Mostly Cloudy
8:56 AM 72.0 °F - 66.9 °F 84% 30.13 in 7.0 mi SSW 5.8 mph - N/A   Scattered Clouds
9:56 AM 75.0 °F - 68.0 °F 79% 30.12 in 8.0 mi Variable 4.6 mph - N/A   Scattered Clouds
10:56 AM 78.1 °F - 69.1 °F 74% 30.12 in 9.0 mi West 6.9 mph - N/A   Clear
11:56 AM 81.0 °F 84.4 °F 70.0 °F 69% 30.11 in 10.0 mi Calm Calm - N/A   Clear
12:56 PM 82.9 °F 87.5 °F 71.1 °F 67% 30.10 in 9.0 mi WNW 6.9 mph - N/A   Clear
1:56 PM 84.9 °F 89.4 °F 70.0 °F 61% 30.08 in 9.0 mi WNW 8.1 mph - N/A   Partly Cloudy
2:56 PM 82.0 °F 85.5 °F 69.1 °F 65% 30.06 in 8.0 mi SSE 8.1 mph - N/A   Mostly Cloudy
3:10 PM 80.6 °F 83.9 °F 69.8 °F 70% 30.09 in 8.0 mi SSE 5.8 mph - N/A Thunderstorm Thunderstorm
3:56 PM 75.0 °F - 71.1 °F 87% 30.07 in 5.0 mi Calm Calm - 0.00 in Rain , Thunderstorm Light Thunderstorms and Rain
4:56 PM 69.1 °F - 66.0 °F 90% 30.10 in 3.0 mi WNW 12.7 mph - N/A Rain , Thunderstorm Thunderstorms and Rain
5:35 PM 71.6 °F - 69.8 °F 94% 30.09 in 8.0 mi West 5.8 mph - N/A   Mostly Cloudy
5:56 PM 73.9 °F - 70.0 °F 87% 30.08 in 6.0 mi West 5.8 mph - N/A   Mostly Cloudy
6:56 PM 75.0 °F - 72.0 °F 90% 30.08 in 7.0 mi Calm Calm - 0.02 in   Scattered Clouds
7:56 PM 72.0 °F - 69.1 °F 91% 30.08 in 7.0 mi WNW 3.5 mph - 0.01 in   Clear
8:56 PM 70.0 °F - 68.0 °F 93% 30.09 in 7.0 mi Calm Calm - 0.01 in   Scattered Clouds
9:56 PM 70.0 °F - 68.0 °F 93% 30.09 in 7.0 mi Calm Calm - N/A   Clear
10:56 PM 68.0 °F - 66.9 °F 96% 30.10 in 7.0 mi Calm Calm - 0.01 in   Clear
11:20 PM 68.0 °F - 66.2 °F 94% 30.11 in 2.5 mi NW 3.5 mph - N/A   Clear
11:40 PM 66.2 °F - 66.2 °F 100% 30.11 in 4.0 mi Calm Calm - N/A   Clear
11:56 PM 68.0 °F - 66.9 °F 96% 30.10 in 4.0 mi Calm Calm - N/A   Clear